Kaldármelar Airport

Jump to: basic info | weather | comments

Related pages: nearby airports | nearby navaids | notams | map

Basic information (top)

Codes: BIKA
Location: lon 64.778900, lat -22.256901, elev 160 ft / 49 m msl
Status: small_airport

Weather (top)

Current conditions for Reykjavik Airport 40nm (74km) SSE (rec'd 2015/02/27 15:00Z):

BIRK 271500Z 08007KT 050V110 CAVOK M01/M07 Q0981 R13/901295

Airport forecast for Reykjavik Airport 40nm (74km) SSE (rec'd 2015/02/27 15:03Z):

TAF BIRK 271401Z 2715/2815 09010KT 9999 FEW035 TX00/2815Z TNM07/2703Z 
      BECMG 2715/2718 08012G25KT 
      BECMG 2806/2809 04010KT

Latest comments (top)

No comments yet for Kaldármelar Airport

More... (top)

See also NOTAMs and nearby airports and navaids, or visit the Kaldármelar Airport page at the main OurAirports website..